Garden City, KS

4:51 PM CDT on May 29, 2017 (GMT -0500)
Garden City Regional

Weather History for KGCK - November, 2013

Change the Weather History Date:

Tuesday, November 5, 2013

  Actual Average Record
Temperature  
Mean Temperature 43 °F 47 °F  
Max Temperature 51 °F 61 °F 79 °F (1950)
Min Temperature 35 °F 33 °F 11 °F (1967)
Degree Days  
Heating Degree Days 22 18  
Month to date heating degree days 81 86  
Since 1 July heating degree days 445 476  
Cooling Degree Days 0 0  
Month to date cooling degree days 0 0  
Year to date cooling degree days 1591 1298  
Moisture  
Dew Point 40 °F    
Average Humidity 85    
Maximum Humidity 100    
Minimum Humidity 70    
Precipitation  
Precipitation 0.85 in 0.02 in 0.85 in (2013)
Month to date precipitation 0.85 0.10  
Year to date precipitation 14.71 18.50  
Sea Level Pressure  
Sea Level Pressure 29.95 in    
Wind  
Wind Speed 15 mph (North)    
Max Wind Speed 30 mph    
Max Gust Speed 37 mph    
Visibility 6 miles    
Events Fog , Rain , Thunderstorm    
T = Trace of Precipitation, MM = Missing Value Source: NWS Daily Summary

Daily Weather History Graph

Daily Weather History Graph

Search for Another Location

Airport or City:

Trip Planner

Search our weather history database for the weather conditions in past years. The results will help you decide how hot, cold, wet, or windy it might be!

Date:

Astronomy

Nov. 05, 2013 Rise Set
Actual Time 7:12 AM CST 5:39 PM CST
Civil Twilight 6:45 AM CST 6:06 PM CST
Nautical Twilight 6:14 AM CST 6:38 PM CST
Astronomical Twilight 5:43 AM CST 7:08 PM CST
Moon 9:28 AM CST (11/5) 7:44 PM CST (11/5)
Length of Visible Light 11h 21m
Length of Day
10h 26m
Waxing Crescent, 7% of the Moon is Illuminated
Nov 5
Waxing Crescent
Nov 9
First Quarter
Nov 17
Full
Nov 25
Last Quarter
Dec 2
New

Hourly Weather History & Observations

Time (CST) Temp. Windchill Dew Point Humidity Pressure Visibility Wind Dir Wind Speed Gust Speed Precip Events Conditions
12:54 AM 43.0 °F 36.4 °F 34.0 °F 71% 29.97 in 10.0 mi East 12.7 mph - N/A   Overcast
1:54 AM 44.1 °F 37.7 °F 35.1 °F 71% 29.94 in 10.0 mi ENE 12.7 mph - N/A   Overcast
2:13 AM 44.6 °F 39.2 °F 35.6 °F 71% 29.94 in 10.0 mi ENE 10.4 mph - N/A   Overcast
2:54 AM 43.0 °F 38.2 °F 37.0 °F 80% 29.93 in 5.0 mi NE 8.1 mph - 0.01 in Rain Rain
3:02 AM 42.8 °F 39.3 °F 37.4 °F 81% 29.95 in 4.0 mi ENE 5.8 mph - 0.02 in Rain , Thunderstorm Thunderstorms and Rain
3:11 AM 42.8 °F 37.0 °F 37.4 °F 81% 29.98 in 1.8 mi WNW 10.4 mph - 0.13 in Rain , Thunderstorm Heavy Thunderstorms and Rain
3:33 AM 41.0 °F - 39.2 °F 93% 29.97 in 2.0 mi Calm Calm - 0.29 in Rain , Thunderstorm Rain
3:42 AM 41.0 °F 34.3 °F 39.2 °F 93% 29.92 in 2.5 mi ENE 11.5 mph - 0.33 in Rain Heavy Rain
3:54 AM 41.0 °F 37.1 °F 39.0 °F 93% 29.93 in 4.0 mi ENE 5.8 mph - 0.38 in Rain Rain
4:50 AM 41.0 °F 34.7 °F 39.2 °F 93% 29.92 in 6.0 mi East 10.4 mph - 0.10 in Rain , Thunderstorm Light Rain
4:54 AM 41.0 °F 35.2 °F 39.9 °F 96% 29.91 in 6.0 mi East 9.2 mph - 0.11 in Rain , Thunderstorm Light Rain
5:05 AM 41.0 °F 33.9 °F 39.2 °F 93% 29.89 in 5.0 mi ENE 12.7 mph - 0.02 in Rain Rain
5:54 AM 42.1 °F 35.7 °F 41.0 °F 96% 29.88 in 5.0 mi East 11.5 mph - 0.04 in Rain Light Rain
6:12 AM 42.8 °F 36.6 °F 41.0 °F 93% 29.88 in 5.0 mi ESE 11.5 mph - 0.00 in Rain Light Rain
6:54 AM 43.0 °F 38.8 °F 43.0 °F 100% 29.89 in 4.0 mi East 6.9 mph - 0.12 in Rain Light Rain
7:54 AM 45.0 °F 42.6 °F 44.1 °F 97% 29.88 in 6.0 mi East 4.6 mph - 0.03 in   Overcast
8:28 AM 46.4 °F 44.3 °F 44.6 °F 93% 29.88 in 1.8 mi SE 4.6 mph - N/A   Overcast
8:37 AM 46.4 °F 42.9 °F 44.6 °F 93% 29.88 in 0.5 mi SE 6.9 mph - N/A Fog Fog
8:51 AM 46.4 °F 42.4 °F 46.4 °F 100% 29.87 in 0.2 mi SSE 8.1 mph - N/A Fog Fog
8:54 AM 46.9 °F - 46.0 °F 97% 29.87 in 0.2 mi SSE 10.4 mph - N/A Fog Fog
9:02 AM 46.4 °F 41.1 °F 46.4 °F 100% 29.88 in 0.5 mi SSE 11.5 mph - N/A Fog Fog
9:18 AM 48.2 °F - 46.4 °F 93% 29.87 in 0.2 mi SSE 12.7 mph - 0.00 in Fog , Rain Light Rain
9:28 AM 48.2 °F - 48.2 °F 100% 29.87 in 0.8 mi SSE 9.2 mph - 0.00 in Rain Light Rain
9:36 AM 48.2 °F - 48.2 °F 100% 29.87 in 2.0 mi South 10.4 mph - 0.00 in   Overcast
9:45 AM 50.0 °F - 50.0 °F 100% 29.87 in 3.0 mi South 12.7 mph - 0.00 in   Overcast
9:54 AM 50.0 °F - 50.0 °F 100% 29.87 in 2.5 mi South 11.5 mph - 0.00 in   Overcast
10:26 AM 51.8 °F - 50.0 °F 94% 29.87 in 1.8 mi South 9.2 mph - 0.00 in Rain Light Rain
10:50 AM 51.8 °F - 50.0 °F 94% 29.87 in 0.8 mi WSW 8.1 mph - 0.01 in Rain Light Rain
10:54 AM 51.1 °F - 50.0 °F 96% 29.87 in 0.8 mi West 6.9 mph - 0.02 in Rain Light Rain
11:07 AM 51.8 °F - 51.8 °F 100% 29.87 in 1.2 mi West 9.2 mph - 0.02 in Rain Rain
11:31 AM 50.0 °F - 50.0 °F 100% 29.87 in 1.5 mi WSW 10.4 mph - 0.05 in Rain Light Rain
11:41 AM 50.0 °F - 50.0 °F 100% 29.88 in 1.2 mi WNW 13.8 mph - 0.08 in Rain Rain
11:50 AM 48.2 °F - 46.4 °F 93% 29.88 in 1.0 mi NW 13.8 mph - 0.13 in Rain Rain
11:54 AM 46.9 °F - 46.0 °F 97% 29.89 in 1.0 mi NW 13.8 mph - 0.13 in Rain Rain
12:01 PM 46.4 °F 40.1 °F 44.6 °F 93% 29.88 in 1.8 mi WNW 15.0 mph - 0.01 in Rain Light Rain
12:15 PM 46.4 °F 40.1 °F 46.4 °F 100% 29.88 in 3.0 mi NW 15.0 mph - 0.01 in Rain Light Rain
12:49 PM 44.6 °F 38.1 °F 44.6 °F 100% 29.88 in 2.5 mi NW 13.8 mph - 0.01 in   Overcast
12:54 PM 45.0 °F 38.5 °F 44.1 °F 97% 29.89 in 4.0 mi NW 13.8 mph - 0.01 in   Overcast
1:41 PM 46.4 °F 39.2 °F 42.8 °F 87% 29.88 in 10.0 mi NW 18.4 mph 26.5 mph N/A   Overcast
1:54 PM 45.0 °F 37.4 °F 43.0 °F 93% 29.90 in 10.0 mi NW 18.4 mph - N/A   Overcast
2:27 PM 44.6 °F 35.9 °F 42.8 °F 93% 29.92 in 10.0 mi NW 23.0 mph 29.9 mph N/A   Overcast
2:54 PM 44.1 °F 34.8 °F 39.9 °F 85% 29.93 in 10.0 mi NNW 25.3 mph 35.7 mph N/A   Overcast
3:32 PM 44.6 °F 35.5 °F 37.4 °F 76% 29.94 in 10.0 mi NNW 25.3 mph 34.5 mph N/A   Overcast
3:40 PM 44.6 °F 35.1 °F 37.4 °F 76% 29.95 in 10.0 mi NNW 27.6 mph 33.4 mph N/A   Overcast
3:54 PM 43.0 °F 33.5 °F 37.0 °F 80% 29.98 in 10.0 mi NNW 24.2 mph 35.7 mph N/A   Overcast
4:54 PM 42.1 °F 31.7 °F 35.1 °F 76% 30.01 in 10.0 mi NNW 27.6 mph 35.7 mph N/A   Mostly Cloudy
5:27 PM 41.0 °F 30.9 °F 35.6 °F 81% 30.01 in 10.0 mi NNW 24.2 mph 31.1 mph N/A   Mostly Cloudy
5:54 PM 39.9 °F 30.0 °F 34.0 °F 79% 30.04 in 10.0 mi North 21.9 mph 33.4 mph N/A   Overcast
6:19 PM 39.2 °F 28.5 °F 33.8 °F 81% 30.03 in 10.0 mi North 24.2 mph 32.2 mph N/A   Scattered Clouds
6:37 PM 39.2 °F 29.3 °F 33.8 °F 81% 30.05 in 10.0 mi North 20.7 mph - N/A   Mostly Cloudy
6:54 PM 39.0 °F 29.3 °F 33.1 °F 79% 30.08 in 10.0 mi North 19.6 mph - N/A   Overcast
7:08 PM 37.4 °F 26.1 °F 33.8 °F 87% 30.07 in 10.0 mi North 24.2 mph 32.2 mph N/A   Overcast
7:20 PM 37.4 °F 25.9 °F 32.0 °F 81% 30.07 in 10.0 mi North 25.3 mph 33.4 mph N/A   Overcast
7:54 PM 37.9 °F 28.9 °F 32.0 °F 79% 30.15 in 10.0 mi NNW 16.1 mph - N/A   Overcast
8:09 PM 37.4 °F 27.5 °F 32.0 °F 81% 30.12 in 10.0 mi North 18.4 mph 29.9 mph N/A   Overcast
8:54 PM 37.0 °F 27.4 °F 32.0 °F 82% 30.14 in 10.0 mi North 17.3 mph - N/A   Overcast
9:54 PM 36.0 °F 24.4 °F 30.9 °F 82% 30.13 in 10.0 mi North 23.0 mph - N/A   Mostly Cloudy
10:54 PM 36.0 °F 26.3 °F 30.9 °F 82% 30.17 in 10.0 mi NNW 16.1 mph - N/A   Overcast
11:21 PM 35.6 °F 25.9 °F 30.2 °F 81% 30.16 in 10.0 mi NNW 16.1 mph - N/A   Overcast
11:46 PM 35.6 °F 25.9 °F 30.2 °F 81% 30.16 in 10.0 mi NNW 16.1 mph - N/A   Overcast
11:54 PM 35.1 °F 25.2 °F 30.0 °F 82% 30.18 in 10.0 mi NNW 16.1 mph - N/A   Mostly Cloudy